World > North America > United States > Mississippi > Tomnolen

Hourly Tomnolen, MS Regional Weather

Feedback E-mail the Weather

Quick WX

Tomnolen, MS Weather Maps

°F °C°F °C
Tomnolen Weather Map
UTC Time: 8/12/2022, 03:39
Your Time:

Tomnolen, MS Regional Weather

Expires:202208120400;;945655
ASUS44 KJAN 120310
RWRMS 

MISSISSIPPI HOURLY WEATHER ROUNDUP
NATIONAL WEATHER SERVICE JACKSON MS
1000 PM CDT THU AUG 11 2022

NOTE: "FAIR: INDICATES FEW OR NO CLOUDS BELOW 12,000 FEET WITH NO
SIGNIFICANT WEATHER AND/OR OBSTRUCTIONS TO VISIBILITY.


MSZ003>006-009-014>017-022>024-029>033-037>039-120400-
NORTHEAST MISSISSIPPI
  
CITY           SKY/WX    TMP DP  RH WIND       PRES   REMARKS
ABERDEEN       FAIR      75  75 100 CALM      30.06S                  
COLUMBUS AFB   MOCLDY    78  74  88 CALM      30.01R                  
CORINTH        MOCLDY    77  77 100 CALM      30.06R                  
GOLDN TRIANGLE MOCLDY    77  75  93 CALM      30.05R                  
STARKVILLE     FAIR     N/A N/A N/A CALM      30.04R                  
TUPELO         CLOUDY    80  72  76 CALM      30.05R                  
$$


SKY/WX - Weather  TMP - Temperature  DP - Dew Point  RH - Humidity
WIND - Wind Direction/Speed PRES - Barometric Pressure VSB - Visibility
WCI - Wind Chill Index E13G22 Wind - East Wind 13 mph/Gusts of 22 mph

Trending Headlines

Tomnolen Radar Loop



Tomnolen Quick Facts


National Two Day Weather Forecast


E-mail the Tomnolen Weather Forecast

Voice your opinion or tell us about page issues...